When you browse on this site, cookies collect data to enhance your experience and personalize the content and advertising you see.
Visit our Privacy Policy to learn more. By continuing to use the site, you agree to this use of cookies and data.

Previsão horária em Yagupy

Hoje, 6 Julho, Segunda-feira

Tempo Temperatura Precipitação Vento Pressão Humidade
00:00 +19°C° 0 mm 4 m/s 746 mmHg 86%
01:00 +19°C° 0 mm 5 m/s 746 mmHg 85%
02:00 +20°C° 0 mm 5 m/s 746 mmHg 83%
03:00 +19°C° 0.3 mm 5 m/s 745 mmHg 87%
04:00 +19°C° 0.3 mm 4 m/s 745 mmHg 91%
05:00 +19°C° 0.3 mm 4 m/s 745 mmHg 95%
06:00 +19°C° 0 mm 4 m/s 745 mmHg 91%
07:00 +19°C° 0 mm 4 m/s 746 mmHg 88%
08:00 +19°C° 0 mm 4 m/s 746 mmHg 84%
09:00 +19°C° 0.1 mm 4 m/s 746 mmHg 85%
10:00 +18°C° 0.1 mm 4 m/s 746 mmHg 86%
11:00 +17°C° 0.1 mm 4 m/s 746 mmHg 87%
12:00 +18°C° 0.1 mm 4 m/s 746 mmHg 85%
13:00 +18°C° 0.1 mm 4 m/s 746 mmHg 83%
14:00 +19°C° 0.1 mm 3 m/s 746 mmHg 80%
15:00 +19°C° 0 mm 3 m/s 746 mmHg 77%
16:00 +20°C° 0 mm 3 m/s 746 mmHg 74%
17:00 +20°C° 0 mm 3 m/s 746 mmHg 71%
18:00 +19°C° 0 mm 3 m/s 746 mmHg 75%
19:00 +18°C° 0 mm 2 m/s 746 mmHg 79%
20:00 +18°C° 0 mm 2 m/s 746 mmHg 83%
21:00 +16°C° 0 mm 2 m/s 746 mmHg 87%
22:00 +15°C° 0 mm 2 m/s 746 mmHg 90%
23:00 +14°C° 0 mm 1 m/s 746 mmHg 94%

Amanhã, 7 Julho, Terça-feira

Tempo Temperatura Precipitação Vento Pressão Humidade
00:00 +14°C° 0 mm 2 m/s 746 mmHg 92%
01:00 +15°C° 0 mm 2 m/s 746 mmHg 90%
02:00 +15°C° 0 mm 2 m/s 746 mmHg 89%
03:00 +15°C° 0 mm 2 m/s 747 mmHg 88%
04:00 +15°C° 0 mm 2 m/s 747 mmHg 86%
05:00 +15°C° 0 mm 2 m/s 747 mmHg 85%
06:00 +15°C° 0 mm 2 m/s 747 mmHg 79%
07:00 +16°C° 0 mm 2 m/s 747 mmHg 73%
08:00 +17°C° 0 mm 3 m/s 747 mmHg 67%
09:00 +18°C° 0 mm 3 m/s 748 mmHg 64%
10:00 +18°C° 0 mm 3 m/s 748 mmHg 61%
11:00 +19°C° 0 mm 3 m/s 748 mmHg 59%
12:00 +20°C° 0 mm 3 m/s 748 mmHg 55%
13:00 +21°C° 0 mm 3 m/s 748 mmHg 52%
14:00 +22°C° 0 mm 3 m/s 748 mmHg 48%
15:00 +21°C° 0 mm 3 m/s 748 mmHg 52%
16:00 +21°C° 0 mm 3 m/s 748 mmHg 56%
17:00 +20°C° 0 mm 3 m/s 748 mmHg 60%
18:00 +19°C° 0.1 mm 2 m/s 748 mmHg 67%
19:00 +18°C° 0.1 mm 2 m/s 748 mmHg 74%
20:00 +17°C° 0.1 mm 2 m/s 748 mmHg 81%
21:00 +16°C° 0 mm 2 m/s 748 mmHg 81%
22:00 +15°C° 0 mm 2 m/s 748 mmHg 82%
23:00 +14°C° 0 mm 2 m/s 749 mmHg 83%

Depois de amanhã, 8 Julho, Quarta-feira

Tempo Temperatura Precipitação Vento Pressão Humidade
00:00 +14°C° 0 mm 2 m/s 749 mmHg 87%
01:00 +13°C° 0 mm 2 m/s 749 mmHg 91%
02:00 +12°C° 0 mm 2 m/s 749 mmHg 95%
03:00 +12°C° 0 mm 2 m/s 749 mmHg 94%
04:00 +12°C° 0 mm 2 m/s 749 mmHg 94%
05:00 +12°C° 0 mm 2 m/s 749 mmHg 93%
06:00 +14°C° 0 mm 2 m/s 749 mmHg 85%
07:00 +15°C° 0 mm 2 m/s 749 mmHg 76%
08:00 +17°C° 0 mm 2 m/s 749 mmHg 67%
09:00 +18°C° 0 mm 3 m/s 749 mmHg 61%
10:00 +19°C° 0 mm 3 m/s 749 mmHg 55%
11:00 +20°C° 0 mm 3 m/s 749 mmHg 49%
12:00 +21°C° 0 mm 4 m/s 749 mmHg 47%
13:00 +21°C° 0 mm 4 m/s 749 mmHg 46%
14:00 +22°C° 0 mm 4 m/s 749 mmHg 44%
15:00 +21°C° 0.2 mm 4 m/s 749 mmHg 51%
16:00 +20°C° 0.2 mm 4 m/s 749 mmHg 58%
17:00 +19°C° 0.2 mm 3 m/s 749 mmHg 65%
18:00 +18°C° 0.1 mm 3 m/s 749 mmHg 71%
19:00 +17°C° 0.1 mm 2 m/s 749 mmHg 76%
20:00 +16°C° 0.1 mm 2 m/s 749 mmHg 81%
21:00 +15°C° 0 mm 2 m/s 750 mmHg 84%
22:00 +14°C° 0 mm 2 m/s 750 mmHg 87%
23:00 +13°C° 0 mm 2 m/s 750 mmHg 90%

9 Julho, Quinta-feira

Tempo Temperatura Precipitação Vento Pressão Humidade
00:00 +12°C° 0 mm 2 m/s 751 mmHg 92%
01:00 +12°C° 0 mm 2 m/s 751 mmHg 94%
02:00 +10°C° 0 mm 2 m/s 751 mmHg 97%
03:00 +10°C° 0 mm 2 m/s 751 mmHg 96%
04:00 +10°C° 0 mm 2 m/s 751 mmHg 95%
05:00 +10°C° 0 mm 2 m/s 752 mmHg 94%
06:00 +13°C° 0 mm 2 m/s 752 mmHg 86%
07:00 +14°C° 0 mm 2 m/s 752 mmHg 78%
08:00 +16°C° 0 mm 2 m/s 752 mmHg 70%
09:00 +17°C° 0 mm 2 m/s 753 mmHg 64%
10:00 +18°C° 0 mm 3 m/s 753 mmHg 58%
11:00 +19°C° 0 mm 3 m/s 753 mmHg 53%
12:00 +20°C° 0 mm 3 m/s 753 mmHg 50%
13:00 +20°C° 0 mm 3 m/s 753 mmHg 48%
14:00 +21°C° 0 mm 3 m/s 753 mmHg 45%
15:00 +21°C° 0.2 mm 3 m/s 753 mmHg 49%
16:00 +20°C° 0.2 mm 3 m/s 753 mmHg 53%
17:00 +20°C° 0.2 mm 3 m/s 753 mmHg 57%
18:00 +18°C° 0.1 mm 2 m/s 753 mmHg 65%
19:00 +17°C° 0.1 mm 2 m/s 753 mmHg 72%
20:00 +15°C° 0.1 mm 2 m/s 754 mmHg 80%
21:00 +14°C° 0 mm 2 m/s 754 mmHg 82%
22:00 +13°C° 0 mm 1 m/s 754 mmHg 84%
23:00 +11°C° 0 mm 1 m/s 755 mmHg 87%

10 Julho, Sexta-feira

Tempo Temperatura Precipitação Vento Pressão Humidade
00:00 +11°C° 0 mm 1 m/s 755 mmHg 88%
01:00 +10°C° 0 mm 1 m/s 755 mmHg 89%
02:00 +10°C° 0 mm 1 m/s 755 mmHg 90%
03:00 +10°C° 0 mm 1 m/s 755 mmHg 89%
04:00 +10°C° 0 mm 1 m/s 755 mmHg 88%
05:00 +11°C° 0 mm 1 m/s 755 mmHg 87%
06:00 +13°C° 0 mm 1 m/s 755 mmHg 78%
07:00 +15°C° 0 mm 1 m/s 755 mmHg 70%
08:00 +17°C° 0 mm 2 m/s 755 mmHg 61%
09:00 +18°C° 0 mm 2 m/s 755 mmHg 55%
10:00 +20°C° 0 mm 2 m/s 755 mmHg 50%
11:00 +21°C° 0 mm 2 m/s 754 mmHg 45%
12:00 +21°C° 0 mm 3 m/s 754 mmHg 45%
13:00 +22°C° 0 mm 3 m/s 753 mmHg 45%
14:00 +22°C° 0 mm 3 m/s 753 mmHg 45%
15:00 +22°C° 0 mm 3 m/s 753 mmHg 45%
16:00 +22°C° 0 mm 3 m/s 752 mmHg 45%
17:00 +22°C° 0 mm 3 m/s 752 mmHg 44%
18:00 +20°C° 0 mm 2 m/s 752 mmHg 52%
19:00 +18°C° 0 mm 2 m/s 751 mmHg 60%
20:00 +18°C° 0 mm 1 m/s 751 mmHg 68%
21:00 +16°C° 0 mm 2 m/s 750 mmHg 71%
22:00 +16°C° 0 mm 3 m/s 750 mmHg 74%
23:00 +14°C° 0 mm 3 m/s 749 mmHg 77%

11 Julho, Sábado

Tempo Temperatura Precipitação Vento Pressão Humidade
00:00 +14°C° 0.4 mm 4 m/s 748 mmHg 81%
01:00 +14°C° 0.4 mm 4 m/s 748 mmHg 86%
02:00 +14°C° 0.4 mm 5 m/s 747 mmHg 90%
03:00 +14°C° 0.8 mm 4 m/s 747 mmHg 92%
04:00 +14°C° 0.8 mm 4 m/s 747 mmHg 93%
05:00 +14°C° 0.8 mm 4 m/s 747 mmHg 95%
06:00 +14°C° 0.2 mm 4 m/s 747 mmHg 89%
07:00 +15°C° 0.2 mm 5 m/s 747 mmHg 83%
08:00 +15°C° 0.2 mm 5 m/s 747 mmHg 78%
09:00 +16°C° 0.1 mm 5 m/s 747 mmHg 71%
10:00 +17°C° 0.1 mm 6 m/s 748 mmHg 65%
11:00 +19°C° 0.1 mm 6 m/s 748 mmHg 58%
12:00 +17°C° 0.1 mm 6 m/s 748 mmHg 59%
13:00 +17°C° 0.1 mm 6 m/s 748 mmHg 61%
14:00 +17°C° 0.1 mm 6 m/s 748 mmHg 62%
15:00 +16°C° 0.1 mm 6 m/s 748 mmHg 63%
16:00 +16°C° 0.1 mm 6 m/s 749 mmHg 65%
17:00 +15°C° 0.1 mm 7 m/s 749 mmHg 66%
18:00 +14°C° 0.1 mm 6 m/s 748 mmHg 70%
19:00 +14°C° 0.1 mm 6 m/s 748 mmHg 74%
20:00 +13°C° 0.1 mm 5 m/s 748 mmHg 78%
21:00 +12°C° 0.2 mm 5 m/s 747 mmHg 82%
22:00 +11°C° 0.2 mm 6 m/s 747 mmHg 87%
23:00 +10°C° 0.2 mm 6 m/s 747 mmHg 92%
Mostrar mais